GW1059 Weather Reports


time (UTC)temp
C
wind
direction
speed
KPH
gust
KPH
rain 1hr
cm
rain 24hr
cm
rain mn
cm
humidity
%
barometer
mb
20260503050841 14 238 4.8 12.9 0.00 0.00 0.00 51 1009.6
20260503050337 14 246 4.8 12.9 0.00 0.00 0.00 51 1009.6
20260503045834 14 259 4.8 14.5 0.00 0.00 0.00 50 1009.6
20260503045332 14 242 4.8 14.5 0.00 0.00 0.00 50 1009.6
20260503044828 14 237 6.4 12.9 0.00 0.00 0.00 50 1009.6
20260503044325 15 252 6.4 14.5 0.00 0.00 0.00 50 1009.6
20260503043822 15 235 4.8 17.7 0.00 0.00 0.00 49 1010.1
20260503043319 14 235 6.4 17.7 0.00 0.00 0.00 49 1010.1
20260503042815 14 254 4.8 11.3 0.00 0.00 0.00 49 1010.1
20260503042312 14 212 3.2 8.0 0.00 0.00 0.00 49 1010.1
20260503041808 14 226 1.6 4.8 0.00 0.00 0.00 49 1010.1
20260503041306 14 225 1.6 8.0 0.00 0.00 0.00 49 1010.1
20260503040804 14 215 1.6 8.0 0.00 0.00 0.00 49 1010.1
20260503040301 14 200 3.2 8.0 0.00 0.00 0.00 48 1010.1
20260503035757 14 182 3.2 8.0 0.00 0.00 0.00 48 1010.4
20260503035255 14 239 3.2 8.0 0.00 0.00 0.00 48 1010.4
20260503034752 14 252 3.2 9.7 0.00 0.00 0.00 48 1010.4
20260503034249 13 244 3.2 9.7 0.00 0.00 0.00 49 1010.7
20260503033746 13 218 3.2 8.0 0.00 0.00 0.00 50 1010.7
20260503033244 13 232 1.6 4.8 0.00 0.00 0.00 51 1010.7
20260503032742 13 234 1.6 4.8 0.00 0.00 0.00 51 1010.7
20260503032240 13 234 1.6 6.4 0.00 0.00 0.00 50 1010.7
20260503031737 13 234 3.2 6.4 0.00 0.00 0.00 50 1010.7
20260503031235 13 232 1.6 6.4 0.00 0.00 0.00 50 1011.1
20260503030731 13 233 1.6 6.4 0.00 0.00 0.00 49 1011.1
20260503030228 13 233 1.6 6.4 0.00 0.00 0.00 49 1011.1
20260503025725 13 229 1.6 6.4 0.00 0.00 0.00 48 1011.1
20260503025222 13 234 1.6 6.4 0.00 0.00 0.00 48 1011.1
20260503024719 13 236 1.6 6.4 0.00 0.00 0.00 47 1011.1
20260503024216 13 217 0.0 4.8 0.00 0.00 0.00 47 1011.1
20260503023713 14 203 1.6 8.0 0.00 0.00 0.00 47 1011.1
20260503023209 14 202 1.6 8.0 0.00 0.00 0.00 47 1011.1
20260503022706 13 200 1.6 4.8 0.00 0.00 0.00 47 1011.1
20260503022205 13 210 0.0 4.8 0.00 0.00 0.00 47 1011.1
20260503021703 13 210 1.6 4.8 0.00 0.00 0.00 47 1011.1
20260503021159 13 209 0.0 4.8 0.00 0.00 0.00 46 1011.1
20260503020656 13 196 0.0 4.8 0.00 0.00 0.00 47 1011.1
20260503020154 14 196 1.6 4.8 0.00 0.00 0.00 46 1011.1
20260503015650 14 198 1.6 4.8 0.00 0.00 0.00 46 1011.1
20260503015147 14 198 3.2 8.0 0.00 0.00 0.00 46 1011.1
20260503014643 14 198 3.2 8.0 0.00 0.00 0.00 46 1011.1
20260503014141 14 196 3.2 6.4 0.00 0.00 0.00 45 1011.1
20260503013638 14 196 3.2 9.7 0.00 0.00 0.00 45 1011.1
20260503013136 14 177 1.6 9.7 0.00 0.00 0.00 45 1011.1
20260503012633 15 184 1.6 6.4 0.00 0.00 0.00 45 1011.1
20260503012130 15 185 1.6 6.4 0.00 0.00 0.00 45 1011.4
20260503011626 15 194 3.2 8.0 0.00 0.00 0.00 44 1011.4
20260503011124 15 192 3.2 9.7 0.00 0.00 0.00 44 1011.4
20260503010620 15 195 3.2 9.7 0.00 0.00 0.00 44 1011.4
20260503010117 15 198 3.2 8.0 0.00 0.00 0.00 43 1011.4
20260503005614 15 199 3.2 8.0 0.00 0.00 0.00 43 1011.4
20260503005111 15 202 3.2 9.7 0.00 0.00 0.00 42 1011.4
20260503004607 15 190 3.2 9.7 0.00 0.00 0.00 42 1011.4
20260503004106 15 197 3.2 8.0 0.00 0.00 0.00 41 1011.4
20260503003602 15 193 1.6 8.0 0.00 0.00 0.00 41 1011.4
20260503003059 16 193 3.2 8.0 0.00 0.00 0.00 41 1011.8
20260503002556 16 242 3.2 11.3 0.00 0.00 0.00 41 1011.8
20260503002053 16 246 4.8 11.3 0.00 0.00 0.00 41 1011.8
20260503001549 16 244 4.8 12.9 0.00 0.00 0.00 39 1011.8
20260503001047 16 236 4.8 17.7 0.00 0.00 0.00 39 1011.8
20260503000544 16 239 6.4 17.7 0.00 0.00 0.00 40 1011.8
20260503000041 16 236 8.0 17.7 0.00 0.00 0.00 39 1011.8
20260502235537 16 227 8.0 17.7 0.00 0.00 0.00 39 1011.8
20260502235036 16 234 8.0 17.7 0.00 0.00 0.00 39 1011.8
20260502234531 16 252 8.0 16.1 0.00 0.00 0.00 39 1011.8
20260502234029 16 244 8.0 16.1 0.00 0.00 0.00 39 1012.1
20260502233524 16 269 11.3 17.7 0.00 0.00 0.00 39 1012.1
20260502233021 16 248 8.0 17.7 0.00 0.00 0.00 39 1012.1
20260502232517 16 284 8.0 17.7 0.00 0.00 0.00 39 1012.1
20260502232015 16 234 11.3 20.9 0.00 0.00 0.00 39 1012.4
20260502231511 16 261 14.5 25.7 0.00 0.00 0.00 39 1012.4
20260502231009 16 251 11.3 25.7 0.00 0.00 0.00 39 1012.1
20260502230508 16 288 11.3 20.9 0.00 0.00 0.00 39 1012.4
20260502230006 16 259 12.9 20.9 0.00 0.00 0.00 38 1012.4
20260502225500 16 261 14.5 25.7 0.00 0.00 0.00 38 1012.4
20260502224958 16 261 16.1 27.4 0.00 0.00 0.00 38 1012.4
20260502224454 16 280 16.1 27.4 0.00 0.00 0.00 38 1012.4
20260502223951 16 283 17.7 27.4 0.00 0.00 0.00 38 1012.4
20260502223449 16 288 17.7 32.2 0.00 0.00 0.00 38 1012.4
20260502222947 16 258 17.7 32.2 0.00 0.00 0.00 38 1012.4
20260502222444 16 292 14.5 29.0 0.00 0.00 0.00 38 1012.4
20260502221939 16 267 14.5 29.0 0.00 0.00 0.00 38 1012.8
20260502221436 16 264 14.5 27.4 0.00 0.00 0.00 38 1012.8
20260502220933 16 277 14.5 27.4 0.00 0.00 0.00 38 1012.8
20260502220429 16 262 16.1 27.4 0.00 0.00 0.00 38 1012.8
20260502215926 16 271 16.1 27.4 0.00 0.00 0.00 38 1012.8
20260502215423 16 281 16.1 27.4 0.00 0.00 0.00 37 1012.8
20260502214920 16 285 14.5 24.1 0.00 0.00 0.00 37 1012.8
20260502214416 16 292 11.3 24.1 0.00 0.00 0.00 38 1013.1
20260502213914 16 273 12.9 27.4 0.00 0.00 0.00 37 1013.1
20260502213410 16 240 14.5 27.4 0.00 0.00 0.00 37 1013.1
20260502212909 16 265 11.3 25.7 0.00 0.00 0.00 38 1013.5
20260502212408 16 254 11.3 19.3 0.00 0.00 0.00 37 1013.5
20260502211905 16 291 12.9 25.7 0.00 0.00 0.00 37 1013.5
20260502211400 16 324 16.1 25.7 0.00 0.00 0.00 37 1013.5
20260502210858 16 236 12.9 25.7 0.00 0.00 0.00 37 1013.5
20260502210355 15 282 12.9 20.9 0.00 0.00 0.00 37 1013.5
20260502205852 15 292 16.1 24.1 0.00 0.00 0.00 36 1013.8
20260502205347 16 313 16.1 25.7 0.00 0.00 0.00 36 1013.8
20260502204845 16 213 14.5 25.7 0.00 0.00 0.00 36 1013.8
20260502204342 16 286 12.9 22.5 0.00 0.00 0.00 35 1013.8
20260502203839 16 190 11.3 27.4 0.00 0.00 0.00 36 1013.8
20260502203337 16 269 12.9 27.4 0.00 0.00 0.00 37 1014.2
20260502202832 15 260 17.7 32.2 0.00 0.00 0.00 36 1014.2
20260502202330 15 275 19.3 32.2 0.00 0.00 0.00 36 1014.2
20260502201828 15 277 14.5 29.0 0.00 0.00 0.00 36 1014.2
20260502201323 15 285 12.9 24.1 0.00 0.00 0.00 35 1014.2
20260502200820 15 282 14.5 27.4 0.00 0.00 0.00 35 1014.6
20260502200316 15 246 14.5 27.4 0.00 0.00 0.00 35 1014.6
20260502195814 15 284 16.1 29.0 0.00 0.00 0.00 34 1014.6
20260502195310 15 279 16.1 29.0 0.00 0.00 0.00 34 1014.6
20260502194807 15 296 16.1 27.4 0.00 0.00 0.00 35 1014.6
20260502194304 15 280 16.1 27.4 0.00 0.00 0.00 35 1014.9
20260502193800 15 281 12.9 25.7 0.00 0.00 0.00 35 1014.9
20260502193257 15 299 12.9 22.5 0.00 0.00 0.00 36 1014.9
20260502192758 15 277 16.1 25.7 0.00 0.00 0.00 36 1015.2
20260502192255 15 252 14.5 25.7 0.00 0.00 0.00 36 1015.2
20260502191752 14 274 11.3 25.7 0.00 0.00 0.00 37 1014.9
20260502191250 14 321 11.3 22.5 0.00 0.00 0.00 37 1015.2
20260502190747 15 244 14.5 25.7 0.00 0.00 0.00 36 1015.2
20260502190245 15 281 14.5 25.7 0.00 0.00 0.00 37 1015.2
20260502185744 15 261 12.9 25.7 0.00 0.00 0.00 36 1015.2
20260502185241 15 286 11.3 24.1 0.00 0.00 0.00 36 1015.2
20260502184738 15 281 14.5 25.7 0.00 0.00 0.00 35 1015.2
20260502184233 14 323 17.7 29.0 0.00 0.00 0.00 35 1015.2
20260502183730 14 300 16.1 41.8 0.00 0.00 0.00 36 1015.6
20260502183226 14 298 14.5 41.8 0.00 0.00 0.00 35 1015.6
20260502182722 14 328 19.3 33.8 0.00 0.00 0.00 36 1015.9
20260502182217 13 309 17.7 33.8 0.00 0.00 0.00 36 1015.9
20260502181714 13 292 14.5 32.2 0.00 0.00 0.00 36 1015.9
20260502181214 13 302 16.1 27.4 0.00 0.00 0.00 36 1015.9
20260502180710 13 294 16.1 33.8 0.00 0.00 0.00 36 1015.9
20260502180208 13 311 16.1 33.8 0.00 0.00 0.00 37 1016.3
20260502170132 13 292 12.9 25.7 0.00 0.00 0.00 36 1016.9
20260502164119 12 292 19.3 33.8 0.00 0.00 0.00 37 1016.9
20260502163615 12 275 17.7 33.8 0.00 0.00 0.00 38 1017.3
20260502163111 12 257 14.5 29.0 0.00 0.00 0.00 38 1017.3
20260502162608 12 338 17.7 27.4 0.00 0.00 0.00 40 1017.3
20260502162105 12 273 16.1 27.4 0.00 0.00 0.00 40 1017.3
20260502161602 12 265 16.1 29.0 0.00 0.00 0.00 41 1017.6
20260502161059 12 277 16.1 29.0 0.00 0.00 0.00 41 1017.6
20260502160557 12 298 14.5 25.7 0.00 0.00 0.00 41 1017.6
20260502152010 11 259 9.7 20.9 0.00 0.00 0.00 47 1018.1
20260502151507 11 263 4.8 16.1 0.00 0.00 0.00 51 1018.1
20260502151004 10 265 4.8 16.1 0.00 0.00 0.00 53 1018.1
20260502150502 10 275 6.4 12.9 0.00 0.00 0.00 54 1018.1
20260502130347 4 266 6.4 14.5 0.00 0.00 0.00 70 1018.4
20260502123330 2 217 1.6 4.8 0.00 0.00 0.00 73 1018.4
20260502122827 2 165 1.6 3.2 0.00 0.00 0.00 75 1018.4
20260502122322 2 164 0.0 3.2 0.00 0.00 0.00 76 1018.4
20260502121821 1 163 0.0 3.2 0.00 0.00 0.00 77 1018.7
20260502121318 1 163 0.0 3.2 0.00 0.00 0.00 78 1018.4
20260502120815 1 163 0.0 1.6 0.00 0.00 0.00 79 1018.7
20260502120311 1 163 0.0 1.6 0.00 0.00 0.00 80 1018.7
20260502115809 1 163 0.0 1.6 0.00 0.00 0.00 80 1018.7
20260502115306 0 163 0.0 0.0 0.00 0.00 0.00 80 1018.4
20260502114802 0 163 0.0 0.0 0.00 0.00 0.00 80 1018.4
20260502114259 0 163 0.0 0.0 0.00 0.00 0.00 80 1018.4
20260502113756 0 163 0.0 0.0 0.00 0.00 0.00 80 1018.4
20260502113254 0 163 0.0 1.6 0.00 0.00 0.00 81 1018.4
20260502112752 0 163 0.0 1.6 0.00 0.00 0.00 81 1018.4
20260502112249 0 163 0.0 0.0 0.00 0.00 0.00 81 1018.4
20260502111746 0 163 0.0 0.0 0.00 0.00 0.00 81 1018.4
20260502111243 0 163 0.0 0.0 0.00 0.00 0.00 81 1018.4
20260502110741 0 163 0.0 3.2 0.00 0.00 0.00 81 1018.4
20260502110238 0 163 0.0 3.2 0.00 0.00 0.00 82 1018.4
20260502105737 0 163 1.6 3.2 0.00 0.00 0.00 82 1018.4
20260502105232 0 163 1.6 6.4 0.00 0.00 0.00 82 1018.4
20260502104730 0 163 1.6 6.4 0.00 0.00 0.00 81 1018.4
20260502104228 0 99 0.0 3.2 0.00 0.00 0.00 78 1018.4
20260502103725 0 99 0.0 0.0 0.00 0.00 0.00 76 1018.4
20260502103223 0 99 0.0 0.0 0.00 0.00 0.00 75 1018.4
20260502102719 0 99 0.0 0.0 0.00 0.00 0.00 75 1018.4
20260502102216 0 99 0.0 0.0 0.00 0.00 0.00 74 1018.4
20260502101714 0 99 0.0 0.0 0.00 0.00 0.00 74 1018.4
20260502101212 0 99 0.0 0.0 0.00 0.00 0.00 74 1018.4
20260502100710 0 99 0.0 3.2 0.00 0.00 0.00 73 1018.4
20260502100208 1 99 0.0 3.2 0.00 0.00 0.00 73 1018.4
20260502091142 0 99 1.6 3.2 0.00 0.00 0.00 76 1018.4
20260502090639 0 99 1.6 3.2 0.00 0.00 0.00 76 1018.7
20260502090136 0 99 1.6 3.2 0.00 0.00 0.00 76 1018.4
20260502071534 1 99 1.6 3.2 0.00 0.00 0.00 76 1018.7
20260502071032 1 99 1.6 3.2 0.00 0.00 0.00 75 1018.7
20260502070530 1 99 1.6 3.2 0.00 0.00 0.00 75 1018.7
20260502070027 1 99 1.6 3.2 0.00 0.00 0.00 74 1019.1
20260502065526 1 99 1.6 3.2 0.00 0.00 0.00 73 1019.1
20260502065023 2 99 1.6 3.2 0.00 0.00 0.00 73 1019.1
20260502064521 2 99 0.0 3.2 0.00 0.00 0.00 73 1019.1
20260502064018 2 99 0.0 3.2 0.00 0.00 0.00 73 1019.1
20260502063516 2 99 0.0 1.6 0.00 0.00 0.00 73 1019.1
20260502063014 2 99 0.0 1.6 0.00 0.00 0.00 73 1019.1
20260502062510 2 99 0.0 1.6 0.00 0.00 0.00 73 1019.1
20260502062009 2 99 0.0 3.2 0.00 0.00 0.00 73 1019.1
20260502061506 2 99 1.6 3.2 0.00 0.00 0.00 72 1019.1
20260502061003 2 99 0.0 3.2 0.00 0.00 0.00 72 1019.1
20260502060458 2 99 0.0 3.2 0.00 0.00 0.00 72 1019.1
20260502055955 2 99 1.6 3.2 0.00 0.00 0.00 71 1019.1
20260502055452 2 99 1.6 3.2 0.00 0.00 0.00 71 1019.1
20260502054952 2 99 1.6 3.2 0.00 0.00 0.00 71 1019.1
20260502054450 2 99 0.0 3.2 0.00 0.00 0.00 70 1019.1
20260502053947 2 99 0.0 3.2 0.00 0.00 0.00 70 1019.1
20260502053444 3 99 1.6 3.2 0.00 0.00 0.00 70 1019.1
20260502052942 3 99 1.6 3.2 0.00 0.00 0.00 69 1019.1
20260502052439 3 99 1.6 3.2 0.00 0.00 0.00 69 1019.1
20260502051938 3 99 1.6 4.8 0.00 0.00 0.00 68 1019.1
20260502051435 3 99 1.6 4.8 0.00 0.00 0.00 67 1019.1